User: anonymous   Login
Location: Muenchen
(48.1800°N, 11.5800°E)
Time: 02:54:26
(UTC+01:00)
Language:

Iridium 73 - Orbit

View from above orbital plane
View from above orbital plane
View from above satellite
View from above satellite

Ground track
Ground track

The orbit data is extracted from the following two-line orbital elements,

1 25344U 98032C   16338.43670305  .00000165  00000-0  38276-4 0  9991
2 25344  86.4423 285.6435 0002365  69.8723 290.2735 14.48992779979206
Epoch (UTC): 03 December 2016 10:28:51
Eccentricity: 0.0002365
inclination: 86.4423°
perigee height: 727 km
apogee height: 730 km
right ascension of ascending node: 285.6435°
argument of perigee: 69.8723°
revolutions per day: 14.48992779
mean anomaly at epoch: 290.2735°
orbit number at epoch: 97920

The dashed part of the orbit path shows where the satellite is in the earth's shadow,  

DLR